�N����,����,�~����,�C��,���x,�C��,����,���ϕ���,�ő�u�ԕ���,�ő厞����,���˗�,�I�_���x,�n�����x,�ő啗���N��,DTYPE
"23/11/19","00:10",0.0,8.4,70.2,1009.0,271.8,3.0,6.5,242.5,0.00,3.3,11.5,"00:07:44",1
"23/11/19","00:20",0.0,8.3,70.5,1009.3,279.3,2.6,5.5,251.9,0.00,3.3,11.7,"00:11:52",1
"23/11/19","00:30",0.0,8.5,70.8,1009.7,275.8,2.8,6.2,311.8,0.00,3.5,11.5,"00:22:48",1
"23/11/19","00:40",0.0,8.6,70.6,1010.0,277.5,2.5,4.2,220.5,0.00,3.6,11.6,"00:32:00",1
"23/11/19","00:50",0.0,8.6,70.7,1010.0,281.6,2.5,5.5,299.9,0.00,3.6,11.5,"00:47:20",1
"23/11/19","01:00",0.0,8.6,70.7,1010.0,270.4,2.7,4.7,297.0,0.00,3.6,11.3,"00:58:24",1
"23/11/19","01:10",0.0,8.5,70.8,1010.0,276.4,2.7,4.9,327.0,0.00,3.5,11.5,"01:01:36",1
"23/11/19","01:20",0.0,8.4,71.5,1010.2,274.7,2.5,4.4,342.6,0.00,3.6,11.6,"01:18:16",1
"23/11/19","01:30",0.0,8.4,72.1,1010.7,273.4,2.1,3.4,312.6,0.00,3.7,11.2,"01:22:16",1
"23/11/19","01:40",0.0,8.6,72.0,1010.7,258.2,2.8,4.7,250.8,0.00,3.9,11.5,"01:31:36",1
"23/11/19","01:50",0.0,8.7,72.3,1010.7,257.4,2.8,6.2,232.4,0.00,4.0,11.6,"01:49:12",1
"23/11/19","02:00",0.0,8.5,73.0,1010.2,270.8,2.5,5.6,242.2,0.00,4.0,11.5,"01:53:12",1
"23/11/19","02:10",0.0,8.4,73.3,1010.2,289.2,2.3,5.8,319.2,0.00,3.9,11.6,"02:06:32",1
"23/11/19","02:20",0.0,8.4,73.8,1010.7,294.4,2.2,4.4,320.2,0.00,4.0,11.3,"02:12:48",1
"23/11/19","02:30",0.0,8.2,74.3,1010.4,287.3,2.1,4.5,306.3,0.00,3.9,11.6,"02:28:24",1
"23/11/19","02:40",0.0,8.2,74.7,1010.4,292.0,2.5,4.0,249.9,0.00,4.0,11.3,"02:34:16",1
"23/11/19","02:50",0.0,8.2,74.8,1010.4,272.6,2.1,3.9,251.3,0.00,4.0,11.4,"02:43:28",1
"23/11/19","03:00",0.0,8.2,75.1,1010.4,269.6,2.3,4.9,244.2,0.00,4.1,11.3,"02:56:40",1
"23/11/19","03:10",0.0,8.4,75.3,1010.4,265.1,2.3,4.5,231.2,0.00,4.3,11.5,"03:07:36",1
"23/11/19","03:20",0.0,8.4,75.2,1010.9,270.0,2.2,3.7,260.4,0.00,4.3,11.4,"03:11:04",1
"23/11/19","03:30",0.0,8.4,75.6,1010.4,262.2,2.3,4.1,246.6,0.00,4.4,11.4,"03:22:08",1
"23/11/19","03:40",0.0,8.3,76.1,1010.4,265.4,2.2,3.5,261.7,0.00,4.4,11.5,"03:31:44",1
"23/11/19","03:50",0.0,8.3,76.5,1010.4,298.3,1.6,2.6,332.6,0.00,4.5,11.6,"03:46:24",1
"23/11/19","04:00",0.0,7.9,77.4,1010.7,303.5,1.3,2.4,320.9,0.00,4.2,11.6,"03:59:52",1
"23/11/19","04:10",0.0,8.0,78.5,1010.9,333.1,1.7,2.9,319.9,0.00,4.5,11.5,"04:06:24",1
"23/11/19","04:20",0.0,7.8,79.8,1010.7,322.5,2.5,3.5,319.2,0.00,4.6,11.5,"04:19:28",1
"23/11/19","04:30",0.0,7.7,80.9,1010.7,320.9,2.6,3.7,318.9,0.00,4.7,11.4,"04:28:40",1
"23/11/19","04:40",0.0,7.8,81.4,1010.4,318.4,2.3,3.6,323.9,0.00,4.9,11.4,"04:37:44",1
"23/11/19","04:50",0.0,8.1,81.0,1010.7,313.4,2.3,3.6,319.9,0.00,5.1,11.5,"04:40:08",1
"23/11/19","05:00",0.0,8.3,80.3,1010.9,308.2,2.2,3.2,317.0,0.00,5.2,11.5,"04:54:16",1
"23/11/19","05:10",0.0,8.3,79.8,1010.7,315.3,1.5,3.5,307.7,0.00,5.1,11.4,"05:00:16",1
"23/11/19","05:20",0.0,8.0,79.9,1010.4,297.7,0.8,1.6,284.7,0.00,4.8,11.3,"05:18:40",1
"23/11/19","05:30",0.0,7.8,80.3,1010.4,307.0,1.5,2.5,313.1,0.00,4.7,11.4,"05:28:32",1
"23/11/19","05:40",0.0,7.5,81.1,1010.4,290.6,1.7,2.5,327.0,0.00,4.5,11.6,"05:30:16",1
"23/11/19","05:50",0.0,7.0,81.8,1010.7,293.5,1.5,2.1,298.3,0.00,4.1,11.5,"05:45:52",1
"23/11/19","06:00",0.0,6.6,82.6,1010.7,303.0,2.0,2.8,322.4,0.00,3.9,11.4,"05:51:36",1
"23/11/19","06:10",0.0,6.5,83.8,1010.7,316.2,1.8,3.2,323.5,0.00,4.0,11.2,"06:03:52",1
"23/11/19","06:20",0.0,6.2,85.2,1010.4,281.0,2.1,2.9,264.9,0.00,3.9,11.5,"06:18:36",1
"23/11/19","06:30",0.0,6.0,86.3,1010.7,283.5,2.0,3.2,324.5,0.00,3.9,11.6,"06:29:34",1
"23/11/19","06:40",0.0,5.6,87.1,1010.7,321.1,2.2,3.2,331.6,0.00,3.7,11.5,"06:37:36",1
"23/11/19","06:50",0.0,5.2,87.9,1010.4,294.9,1.3,1.6,324.4,0.00,3.4,11.2,"06:43:24",1
"23/11/19","07:00",0.0,4.9,88.6,1010.7,301.1,1.3,2.0,314.5,0.00,3.2,11.5,"06:53:26",1
"23/11/19","07:10",0.0,4.9,89.5,1010.9,299.7,1.3,1.8,318.6,0.00,3.4,11.2,"07:03:32",1
"23/11/19","07:20",0.0,4.8,89.9,1010.9,313.5,2.0,2.6,321.7,0.01,3.3,11.2,"07:17:38",1
"23/11/19","07:30",0.0,5.5,90.5,1011.2,314.8,1.8,2.5,316.4,0.02,4.1,11.1,"07:20:56",1
"23/11/19","07:40",0.0,6.1,90.9,1011.2,319.5,1.0,1.9,329.0,0.04,4.8,11.4,"07:34:56",1
"23/11/19","07:50",0.0,6.7,91.2,1011.4,280.5,1.2,1.9,272.5,0.06,5.4,11.2,"07:42:48",1
"23/11/19","08:00",0.0,7.4,91.4,1011.6,276.2,1.1,2.1,258.5,0.08,6.1,11.3,"07:53:04",1
"23/11/19","08:10",0.0,8.1,91.3,1011.9,312.3,1.1,2.0,321.5,0.11,6.8,11.1,"08:06:34",1
"23/11/19","08:20",0.0,8.5,90.7,1012.3,284.1,0.6,1.3,264.9,0.13,7.1,11.2,"08:19:52",1
"23/11/19","08:30",0.0,9.1,90.0,1012.3,264.5,0.5,1.4,253.5,0.16,7.6,11.2,"08:21:36",1
"23/11/19","08:40",0.0,9.6,88.1,1012.3,351.8,0.5,1.0,329.0,0.18,7.8,11.1,"08:30:10",1
"23/11/19","08:50",0.0,10.3,85.4,1012.3,177.1,0.5,1.0,207.4,0.20,8.0,11.0,"08:44:22",1
"23/11/19","09:00",0.0,10.8,80.7,1012.8,201.5,0.7,1.3,174.0,0.23,7.7,11.1,"08:50:52",1
"23/11/19","09:10",0.0,11.6,76.0,1012.6,205.1,0.6,1.2,182.5,0.25,7.6,11.2,"09:06:16",1
"23/11/19","09:20",0.0,12.3,72.6,1012.8,81.3,0.6,1.7,116.6,0.27,7.6,11.2,"09:14:34",1
"23/11/19","09:30",0.0,12.4,69.3,1012.8,26.3,1.0,1.8,113.5,0.29,7.0,11.1,"09:23:04",1
"23/11/19","09:40",0.0,12.6,67.6,1012.8,53.9,0.7,1.9,116.2,0.30,6.8,11.3,"09:30:32",1
"23/11/19","09:50",0.0,12.9,65.3,1012.6,326.7,1.2,3.7,342.4,0.32,6.6,11.5,"09:49:52",1
"23/11/19","10:00",0.0,13.3,64.9,1012.1,310.5,1.5,5.7,352.0,0.34,6.9,11.5,"09:51:52",1
"23/11/19","10:10",0.0,13.5,63.4,1012.1,294.4,1.7,4.5,337.9,0.35,6.7,11.6,"10:02:40",1
"23/11/19","10:20",0.0,13.5,62.3,1011.9,277.8,2.2,5.1,215.6,0.37,6.5,11.5,"10:14:40",1
"23/11/19","10:30",0.0,13.8,60.3,1011.9,276.7,1.8,4.3,205.1,0.38,6.3,11.5,"10:24:56",1
"23/11/19","10:40",0.0,14.1,59.4,1011.4,278.7,2.0,4.5,337.7,0.40,6.4,11.5,"10:31:20",1
"23/11/19","10:50",0.0,14.5,57.7,1011.4,294.7,1.6,4.8,231.5,0.40,6.3,11.6,"10:44:48",1
"23/11/19","11:00",0.0,14.4,56.1,1010.7,276.4,2.2,5.2,233.1,0.42,5.8,11.7,"10:51:04",1
"23/11/19","11:10",0.0,15.0,54.9,1010.9,296.3,1.8,3.9,329.2,0.42,6.1,11.8,"11:00:02",1
"23/11/19","11:20",0.0,14.1,56.7,1010.7,254.3,2.0,4.1,313.0,0.18,5.7,12.0,"11:10:08",1
"23/11/19","11:30",0.0,14.6,54.5,1010.7,240.8,2.3,5.0,212.8,0.43,5.6,12.0,"11:23:36",1
"23/11/19","11:40",0.0,15.0,53.5,1010.4,311.5,2.0,7.8,320.8,0.43,5.7,11.8,"11:39:44",1
"23/11/19","11:50",0.0,15.0,54.0,1010.0,307.7,2.6,5.6,330.0,0.43,5.8,12.2,"11:40:24",1
"23/11/19","12:00",0.0,15.3,54.2,1010.0,307.3,2.2,5.8,344.5,0.43,6.1,11.9,"11:51:20",1
"23/11/19","12:10",0.0,15.3,53.8,1009.7,310.6,2.5,7.5,337.4,0.43,6.0,12.2,"12:01:44",1
"23/11/19","12:20",0.0,15.6,51.8,1009.5,289.5,2.1,4.2,254.5,0.43,5.8,12.2,"12:19:28",1
"23/11/19","12:30",0.0,15.6,52.1,1009.5,308.9,2.2,4.3,330.1,0.42,5.9,12.3,"12:22:40",1
"23/11/19","12:40",0.0,15.6,51.4,1009.0,297.3,2.5,4.7,333.2,0.41,5.7,12.3,"12:31:36",1
"23/11/19","12:50",0.0,15.7,50.6,1009.0,299.6,2.1,4.3,238.7,0.38,5.5,12.4,"12:40:32",1
"23/11/19","13:00",0.0,15.5,50.9,1009.0,309.0,2.2,5.2,344.9,0.31,5.4,12.5,"12:52:08",1
"23/11/19","13:10",0.0,15.7,50.7,1008.8,321.7,2.6,5.8,340.1,0.39,5.6,12.5,"13:08:48",1
"23/11/19","13:20",0.0,15.8,49.6,1008.8,313.2,2.6,6.5,336.9,0.37,5.3,12.5,"13:10:24",1
"23/11/19","13:30",0.0,15.7,49.0,1008.8,274.3,2.5,5.2,243.3,0.36,5.1,12.7,"13:25:28",1
"23/11/19","13:40",0.0,15.8,50.3,1008.8,253.6,2.5,4.8,233.4,0.34,5.5,12.7,"13:30:40",1
"23/11/19","13:50",0.0,15.8,50.9,1008.6,287.2,2.3,7.2,236.9,0.32,5.7,12.7,"13:44:08",1
"23/11/19","14:00",0.0,16.0,50.7,1008.6,293.4,2.2,5.2,339.6,0.30,5.8,12.8,"13:50:24",1
"23/11/19","14:10",0.0,15.9,50.5,1009.0,274.4,2.1,4.1,244.5,0.29,5.7,12.9,"14:01:52",1
"23/11/19","14:20",0.0,16.0,50.1,1008.8,271.1,1.8,4.4,332.3,0.27,5.7,12.8,"14:16:16",1
"23/11/19","14:30",0.0,16.0,49.7,1008.3,274.2,2.0,5.0,235.1,0.24,5.5,12.9,"14:20:32",1
"23/11/19","14:40",0.0,16.0,50.0,1008.6,285.9,1.8,4.0,340.4,0.22,5.6,13.0,"14:31:04",1
"23/11/19","14:50",0.0,15.8,50.0,1008.6,284.5,2.3,4.8,341.0,0.20,5.4,13.1,"14:42:08",1
"23/11/19","15:00",0.0,15.8,49.7,1008.8,267.2,1.8,3.4,243.8,0.18,5.4,13.2,"14:52:16",1
"23/11/19","15:10",0.0,15.9,49.4,1008.6,291.4,1.8,4.1,333.1,0.16,5.4,13.0,"15:05:04",1
"23/11/19","15:20",0.0,15.8,49.4,1008.6,276.5,1.7,4.7,350.5,0.13,5.3,13.1,"15:10:32",1
"23/11/19","15:30",0.0,15.5,50.2,1008.8,262.5,2.0,3.7,229.0,0.11,5.2,13.1,"15:21:04",1
"23/11/19","15:40",0.0,15.6,50.7,1008.6,258.4,1.6,3.1,245.9,0.09,5.5,13.2,"15:36:24",1
"23/11/19","15:50",0.0,15.4,51.2,1008.6,258.5,1.7,2.9,245.5,0.07,5.4,13.1,"15:43:04",1
"23/11/19","16:00",0.0,15.2,51.7,1008.8,276.4,1.3,2.7,262.0,0.05,5.4,13.2,"15:57:28",1
"23/11/19","16:10",0.0,14.6,53.3,1008.8,250.3,2.0,3.4,247.3,0.02,5.3,13.0,"16:04:16",1
"23/11/19","16:20",0.0,13.9,55.6,1009.0,244.8,2.0,4.0,227.5,0.00,5.2,13.3,"16:13:10",1
"23/11/19","16:30",0.0,13.5,57.2,1009.3,261.6,1.5,3.1,226.9,0.00,5.2,13.2,"16:21:44",1
"23/11/19","16:40",0.0,13.1,58.8,1009.0,274.5,1.0,1.3,258.2,0.00,5.3,13.0,"16:33:30",1
"23/11/19","16:50",0.0,12.4,63.6,1009.3,307.7,2.0,2.9,307.0,0.00,5.7,13.1,"16:49:44",1
"23/11/19","17:00",0.0,11.5,66.9,1009.3,302.6,1.8,2.5,328.3,0.00,5.6,13.2,"16:57:58",1
"23/11/19","17:10",0.0,11.0,69.5,1009.3,308.9,1.8,2.8,321.8,0.00,5.7,13.0,"17:03:50",1
"23/11/19","17:20",0.0,10.5,71.3,1009.3,288.4,1.5,2.0,265.1,0.00,5.6,12.8,"17:17:52",1
"23/11/19","17:30",0.0,10.2,72.7,1009.0,281.6,1.5,2.1,268.2,0.00,5.6,13.0,"17:28:40",1
"23/11/19","17:40",0.0,10.0,73.8,1009.3,312.4,1.8,2.8,323.8,0.00,5.6,13.1,"17:35:44",1
"23/11/19","17:50",0.0,9.8,75.1,1009.5,302.6,1.8,2.8,307.6,0.00,5.6,13.0,"17:43:28",1
"23/11/19","18:00",0.0,9.5,76.6,1009.3,292.1,1.8,3.1,310.4,0.00,5.6,13.1,"17:59:44",1
"23/11/19","18:10",0.0,9.3,77.8,1009.7,297.4,1.8,3.6,325.5,0.00,5.7,12.9,"18:07:52",1
"23/11/19","18:20",0.0,9.2,78.9,1010.0,271.8,1.5,2.9,307.1,0.00,5.8,12.8,"18:10:32",1
"23/11/19","18:30",0.0,9.0,79.9,1009.7,293.3,1.8,3.5,319.9,0.00,5.8,12.9,"18:25:52",1
"23/11/19","18:40",0.0,9.0,80.6,1009.5,297.4,1.8,3.1,317.2,0.00,5.9,12.8,"18:33:12",1
"23/11/19","18:50",0.0,8.8,81.2,1010.0,297.7,2.0,2.5,326.3,0.00,5.8,12.7,"18:47:12",1
"23/11/19","19:00",0.0,8.5,81.9,1009.7,286.3,1.8,4.8,317.2,0.00,5.6,12.7,"18:55:44",1
"23/11/19","19:10",0.0,8.6,82.6,1009.7,290.4,2.2,4.3,326.4,0.00,5.8,12.7,"19:02:00",1
"23/11/19","19:20",0.0,8.4,83.1,1009.7,306.4,1.7,3.2,264.0,0.00,5.7,12.6,"19:11:28",1
"23/11/19","19:30",0.0,7.8,83.6,1010.0,300.3,1.1,2.1,301.4,0.00,5.2,12.6,"19:21:04",1
"23/11/19","19:40",0.0,7.2,84.6,1010.0,298.5,1.8,3.1,320.2,0.00,4.8,12.7,"19:37:04",1
"23/11/19","19:50",0.0,6.6,85.5,1010.2,313.8,2.1,2.9,319.4,0.00,4.4,12.6,"19:40:16",1
"23/11/19","20:00",0.0,6.3,86.2,1009.7,297.4,1.6,2.1,315.3,0.00,4.2,12.5,"19:52:32",1
"23/11/19","20:10",0.0,6.5,87.2,1010.0,310.5,1.7,2.7,307.2,0.00,4.6,12.6,"20:06:32",1
"23/11/19","20:20",0.0,6.4,87.7,1009.7,297.6,1.2,1.8,274.9,0.00,4.6,12.3,"20:14:48",1
"23/11/19","20:30",0.0,6.2,88.7,1010.0,275.4,1.1,2.5,315.0,0.00,4.5,12.4,"20:28:26",1
"23/11/19","20:40",0.0,6.5,89.4,1009.7,329.8,2.0,2.9,350.1,0.00,4.9,12.5,"20:33:36",1
"23/11/19","20:50",0.0,6.2,89.8,1010.0,296.1,1.5,2.1,318.2,0.00,4.7,12.2,"20:41:28",1
"23/11/19","21:00",0.0,6.1,90.5,1009.5,298.4,2.0,2.5,319.0,0.00,4.7,12.1,"20:57:34",1
"23/11/19","21:10",0.0,6.4,91.0,1009.7,286.1,1.8,2.7,306.7,0.00,5.1,12.2,"21:00:40",1
"23/11/19","21:20",0.0,6.6,91.3,1009.7,288.7,1.8,2.4,300.1,0.00,5.3,12.2,"21:17:52",1
"23/11/19","21:30",0.0,6.6,91.5,1010.2,303.5,2.3,2.8,319.2,0.00,5.4,12.1,"21:25:12",1
"23/11/19","21:40",0.0,6.1,91.8,1010.0,312.4,1.8,2.2,311.4,0.00,4.9,12.2,"21:37:16",1
"23/11/19","21:50",0.0,5.7,92.0,1010.2,311.5,1.3,2.2,308.1,0.00,4.5,12.0,"21:40:54",1
"23/11/19","22:00",0.0,5.4,92.5,1010.2,306.8,0.7,2.2,320.7,0.00,4.3,12.2,"21:59:56",1
"23/11/19","22:10",0.0,5.2,92.9,1009.7,318.4,2.0,2.4,314.4,0.00,4.2,11.9,"22:02:26",1
"23/11/19","22:20",0.0,5.3,93.1,1010.0,307.5,1.6,2.1,312.8,0.00,4.3,11.9,"22:14:14",1
"23/11/19","22:30",0.0,5.3,93.3,1009.7,297.8,1.6,2.5,311.1,0.00,4.3,11.8,"22:25:44",1
"23/11/19","22:40",0.0,5.4,93.5,1010.0,310.4,1.5,2.5,317.2,0.00,4.5,11.9,"22:33:30",1
"23/11/19","22:50",0.0,5.2,93.6,1009.3,289.4,0.8,1.9,302.1,0.00,4.3,11.9,"22:42:46",1
"23/11/19","23:00",0.0,5.1,94.0,1009.0,260.1,0.7,1.8,291.1,0.00,4.3,11.7,"22:58:58",1
"23/11/19","23:10",0.0,5.1,94.1,1009.5,326.7,1.3,2.0,309.8,0.00,4.3,11.7,"23:09:42",1
"23/11/19","23:20",0.0,5.1,94.4,1009.3,323.2,1.5,2.2,324.8,0.00,4.3,11.6,"23:15:14",1
"23/11/19","23:30",0.0,5.4,94.7,1009.3,327.1,1.8,2.7,315.9,0.00,4.7,11.7,"23:20:50",1
"23/11/19","23:40",0.0,5.1,94.7,1009.0,303.4,1.6,2.2,325.4,0.00,4.4,11.8,"23:30:10",1
"23/11/19","23:50",0.0,5.1,95.0,1009.3,309.8,1.7,2.4,312.1,0.00,4.4,11.7,"23:45:08",1
"23/11/19","24:00",0.0,4.9,95.1,1009.0,306.8,1.0,2.0,318.2,0.00,4.2,11.6,"23:54:06",1
